sat.trackr.live / text

‹ back to catalog

YAOGAN-29

NORAD 41038 · 2015-069A

PAYLOAD ACTIVE UNKNOWN

§ Identity

Operator
Country
PRC
Launch date
2015-11-26
Launch site
TAISC
Launch vehicle
Mass (kg)
RCS (m²)
5.03

Purposes: earth_obs

External: N2YO · Heavens-Above · Gunter

§ Orbital elements

Epoch: 2026-09-20T05:43:03.249984Z

Period
97.09 min
Inclination
97.9989°
Eccentricity
0.0002929
Mean motion
14.83146272 rev/d
Perigee alt
617.4 km
Apogee alt
621.5 km
Semi-major
6,997.5 km
B*
3.6551e-5
RAAN
292.0006°
Arg perigee
80.3489°
Mean anomaly
279.8055°
Rev number
58,471

§ Raw data

YAOGAN-291 41038U 15069A   26263.23823206  .00000244  00000+0  36551-4 0  99952 41038  97.9989 292.0006 0002929  80.3489 279.8055 14.83146272584711

JSON: /api/v1/satellites/41038 · /tle

For live sub-satellite position, see the globe view (requires WebGL).

§ Visibility from observer

Set your observer location to see the next 7 days of passes ≥ 10°. The values pass through the URL so the page stays shareable.

No JS? Fill the form by hand. The geolocation button needs JavaScript.